RH
43 32 23 22 22 23 22 22 22 22 22 22 24 30 39 42 40 32 27 27 27 26 28 28 29 30 29 29 28 29 33 37 42 44 40 37 36 34 31 29 26 24 22
39 29 22 23 24 23 23 23 23 22 23 24 26 31 38 44 41 34 29 28 27 30 33 35 36 37 40 44 46 44 41 39 36 32 30 27 25 23 22 24 23 21 22
37 29 24 24 24 24 24 23 24 23 23 24 30 33 40 46 43 33 30 29 32 37 43 46 43 40 37 33 31 29 28 27 25 25 25 26 27 29 26 25 24 27 25
52 38 27 27 25 25 24 23 22 22 26 32 39 38 42 44 38 35 32 38 48 47 36 28 24 24 26 26 26 26 25 26 25 25 27 28 27 32 40 34 34 34 32
75 54 34 27 27 27 24 22 22 27 35 38 36 37 41 40 39 39 50 52 38 31 27 26 28 29 31 33 34 32 30 26 26 31 34 41 35 32 35 53 55 48 46
79 60 39 29 27 25 23 24 27 34 38 36 36 37 40 42 55 62 46 34 30 30 31 31 31 34 36 38 41 41 40 42 47 44 45 54 57 55 44 49 50 53 56
68 58 35 26 23 23 25 30 37 39 37 36 38 41 56 69 59 40 36 32 37 35 32 33 38 40 45 53 62 60 65 72 74 63 68 63 67 68 52 54 60 72 80
68 61 32 26 25 27 32 36 39 37 36 37 46 63 66 43 36 34 35 32 31 32 35 39 42 49 59 67 62 63 65 81 73 59 66 64 77 82 72 79 73 80 96
82 38 30 28 31 34 37 38 35 35 42 61 63 48 37 35 32 32 37 38 38 36 38 43 50 58 60 66 68 62 72 66 72 83 80 79 79 91 92 87 76 73 78
45 32 32 33 35 35 36 35 36 51 67 50 44 36 32 37 42 39 34 34 37 39 48 52 54 61 72 74 74 69 70 81 80 75 78 86 92 75 60 53 58 66 65
40 39 37 37 39 35 35 44 57 47 40 36 34 36 37 37 35 41 48 47 48 49 55 54 56 62 68 81 91 96 95 94 95 91 72 69 67 72 61 44 35 28 25
41 44 46 39 35 46 54 47 40 35 31 41 38 34 40 39 47 52 52 46 52 56 54 63 68 77 78 75 66 70 68 64 60 57 55 62 51 36 29 22 20 18 14
52 43 39 50 68 53 46 42 36 41 48 35 36 38 48 53 56 55 65 69 76 88 84 81 73 75 79 94 90 92 96 83 61 59 41 34 28 20 18 15 14 11 7
42 70 77 52 51 46 39 43 49 48 34 39 51 59 57 57 62 67 76 92 73 75 71 57 66 83 89 94 99 82 82 64 48 34 25 18 15 10 6 4 4 3 3
65 57 56 44 44 55 64 52 49 44 48 48 51 50 54 64 70 64 60 67 48 63 68 66 83 94 99 91 84 77 51 26 19 16 12 7 5 4 3 3 2 2 2
51 54 64 68 69 64 48 46 51 44 39 42 46 50 59 59 44 46 61 67 68 71 90 73 79 100 89 72 59 51 19 11 8 6 5 4 2 2 2 2 2 2 2
71 82 78 72 63 49 44 36 38 41 56 57 63 58 52 63 77 80 89 71 84 88 69 81 100 88 67 55 30 13 8 5 4 3 2 2 2 2 2 2 2 2 2
70 58 48 38 36 37 38 45 56 62 59 57 71 83 84 97 85 80 71 83 86 52 69 88 68 53 44 16 8 6 5 4 3 2 2 2 2 2 2 2 2 2 2
55 40 40 47 51 56 62 62 61 65 78 78 89 88 86 79 80 70 70 71 62 57 79 75 42 25 14 9 6 4 2 2 2 2 2 2 3 2 2 2 2 2 2
47 52 54 54 58 64 69 74 86 79 88 85 87 82 72 74 73 57 53 57 63 68 56 49 16 8 7 5 3 3 2 2 2 3 3 3 2 2 2 2 2 2 2
53 57 70 86 83 80 82 87 90 90 79 75 78 70 56 53 48 48 60 72 75 56 28 15 9 7 4 3 3 2 2 2 3 4 4 3 2 2 2 2 2 2 2
90 87 90 91 91 90 89 78 68 66 69 68 55 52 46 43 41 56 66 61 43 25 9 8 7 4 3 3 2 3 2 3 3 4 4 3 2 2 2 2 2 2 2
100 93 90 86 71 65 61 64 63 61 63 60 55 53 54 50 60 62 60 36 13 9 8 5 4 3 3 3 4 4 4 3 3 3 3 3 2 2 2 2 2 2 2
84 82 78 81 84 81 80 83 85 69 48 45 41 43 56 55 58 46 40 15 9 6 4 3 3 3 4 5 5 4 3 2 2 3 2 2 2 2 2 2 2 2 2
81 85 85 84 87 87 85 71 53 47 42 42 46 52 57 59 46 24 11 9 6 4 3 3 4 6 7 6 4 4 3 3 3 3 2 2 3 2 2 2 2 2 2
56 52 60 62 56 50 44 45 44 41 40 41 47 51 54 41 24 10 8 6 4 3 3 4 6 7 6 5 4 4 4 4 4 3 3 2 2 3 2 2 2 2 2
Wind_Speed
48 47 47 48 49 52 53 56 58 59 59 62 62 61 60 59 57 54 53 53 52 47 42 41 42 44 46 48 50 51 52 52 56 60 63 63 63 64 64 66 65 64 62
50 49 50 51 53 55 58 59 61 62 64 64 64 64 62 60 59 58 56 55 52 49 48 46 47 48 50 52 54 57 60 62 62 63 64 66 66 62 59 60 63 60 58
53 52 53 55 58 60 62 63 65 67 67 65 65 64 62 62 61 60 59 58 54 53 53 54 54 56 58 60 61 61 60 61 63 61 61 60 61 65 65 61 57 61 61
55 56 57 60 62 64 65 65 69 70 68 67 67 66 65 64 64 63 61 59 59 61 62 62 62 61 61 60 60 61 62 64 64 65 64 64 65 65 71 76 71 64 62
62 62 63 64 66 67 68 70 71 69 69 70 71 69 65 65 65 64 62 63 65 64 63 62 61 60 60 63 65 67 67 66 70 73 73 76 76 73 70 71 83 81 76
66 67 67 68 70 71 73 73 72 72 73 74 71 67 66 65 64 65 66 65 65 65 65 65 65 66 66 67 70 71 74 77 80 80 82 84 85 86 85 80 78 80 86
71 70 71 73 74 75 75 74 74 75 76 72 69 66 65 66 67 67 66 67 67 69 68 70 72 74 76 78 78 80 83 85 87 89 90 93 93 92 92 91 89 90 91
75 74 75 76 77 77 76 76 77 78 73 69 67 67 68 67 68 68 69 69 71 72 76 78 81 83 84 86 89 90 93 95 97 96 99 101 103 105 104 100 99 98 97
75 76 77 79 78 77 77 78 78 73 70 67 68 68 68 70 72 71 73 76 79 81 84 88 91 94 96 97 98 98 99 102 102 105 107 108 109 112 113 113 111 110 107
78 79 80 78 78 79 79 77 72 68 68 68 68 70 71 71 73 76 79 82 84 87 90 93 96 99 103 107 109 109 111 112 112 113 116 118 120 121 121 124 126 126 123
79 78 78 78 79 79 74 70 68 68 66 68 69 72 74 75 77 80 83 87 90 93 97 99 102 106 110 114 117 118 119 119 120 122 124 124 127 130 134 137 132 130 128
76 78 79 79 75 71 69 69 66 67 67 70 72 74 76 77 79 83 85 88 91 95 101 105 110 114 118 120 122 123 126 128 129 131 132 130 130 131 132 131 130 127 123
78 78 74 71 70 69 68 69 69 70 71 75 75 78 80 83 87 91 94 98 103 106 110 114 118 122 127 129 131 131 135 133 130 131 130 129 133 132 130 128 125 120 115
70 68 69 69 67 70 71 70 73 75 76 77 81 84 86 90 94 98 102 106 109 113 118 121 125 128 133 138 139 138 143 139 132 129 130 130 128 120 117 110 106 104 101
67 67 68 68 70 71 73 75 78 79 80 83 86 90 93 97 101 105 109 112 119 122 126 128 132 137 141 146 145 148 141 132 128 125 121 117 112 110 108 104 100 96 94
66 67 69 71 73 75 79 79 81 82 85 89 92 97 101 104 107 112 119 122 125 129 133 137 143 145 153 151 148 145 131 121 115 110 105 103 101 99 98 93 87 84 83
69 71 73 77 80 82 81 81 84 90 95 98 102 104 107 112 116 120 126 130 133 138 142 147 151 153 155 149 140 128 121 114 106 101 95 90 89 88 88 84 78 75 74
74 76 77 78 80 82 83 88 93 97 100 103 107 110 114 117 122 127 131 134 139 143 146 151 153 151 146 135 127 121 113 107 100 92 87 82 81 82 80 75 74 71 68
80 79 81 84 88 91 93 96 99 102 105 108 112 116 121 125 130 133 137 140 143 148 152 153 148 140 129 126 117 112 100 92 90 86 81 75 70 71 72 64 64 65 65
82 86 89 91 94 96 98 102 105 108 111 116 120 125 128 131 134 135 137 143 148 150 147 146 133 126 120 116 108 98 91 87 80 76 73 70 66 65 64 58 55 58 62
89 92 94 96 99 102 105 109 113 115 118 122 125 127 131 135 138 141 145 150 154 148 137 128 124 118 112 103 98 92 83 73 71 70 69 68 64 59 57 55 51 53 56
95 97 100 103 106 108 110 113 116 119 121 124 129 132 136 140 142 145 150 151 147 135 123 118 113 107 99 97 89 82 76 69 65 65 64 64 62 57 51 49 48 48 52
100 101 104 108 113 114 117 118 121 122 124 128 131 135 138 144 147 148 150 143 133 122 114 105 98 96 91 85 80 76 70 65 61 58 55 56 55 50 44 43 43 43 46
105 108 110 112 116 119 122 123 125 129 131 134 137 140 143 147 149 146 144 131 122 110 100 95 90 85 80 77 74 70 66 59 53 51 50 49 46 42 40 37 35 38 40
110 112 115 118 121 124 127 130 132 134 136 137 142 144 146 149 143 135 125 119 110 99 89 82 77 75 74 71 66 61 57 54 51 48 45 42 38 37 34 32 31 31 33
113 115 118 122 124 127 131 133 136 138 141 143 143 145 145 141 131 119 109 106 97 89 80 72 66 65 62 59 55 51 49 47 44 42 39 34 31 29 29 28 27 26 28
Wind_Direction
267 273 277 280 283 287 290 293 297 297 299 301 302 304 305 303 300 299 299 303 306 304 298 295 292 290 288 287 287 287 287 285 287 288 288 287 287 288 288 288 289 289 287
267 273 277 280 284 287 290 293 297 298 299 302 304 305 304 302 299 299 300 302 302 299 297 293 291 290 289 290 290 289 289 288 288 289 290 292 292 290 287 288 291 289 289
268 274 277 281 284 288 291 295 297 299 299 303 304 302 300 298 298 299 300 301 299 297 295 294 293 291 291 290 290 290 290 290 291 291 292 290 293 298 297 293 287 290 289
271 276 279 281 285 288 292 295 296 299 301 300 301 298 296 298 299 299 300 299 299 298 299 300 300 301 300 299 296 295 295 294 294 297 299 300 298 298 301 301 297 292 289
271 277 280 284 286 289 292 295 297 298 297 298 299 297 298 297 298 299 301 300 301 303 302 302 303 302 300 300 300 298 298 299 301 302 303 303 300 297 296 294 297 297 294
273 278 283 285 287 290 293 294 296 295 297 297 297 295 296 297 298 300 299 301 301 303 303 303 302 301 302 302 302 302 303 302 301 301 300 300 299 297 296 295 292 290 292
274 279 282 285 288 290 292 293 294 295 296 295 295 295 296 297 298 298 300 301 303 302 302 303 303 304 304 303 303 303 301 299 298 296 294 295 294 294 293 291 290 289 288
276 281 285 287 288 289 290 290 293 294 294 293 294 296 298 298 298 299 301 300 302 301 303 304 305 304 302 301 301 301 300 299 298 297 295 294 294 293 292 290 288 286 285
278 282 283 284 285 287 288 290 292 292 292 293 295 297 297 298 300 301 302 303 304 304 305 306 305 304 303 303 301 299 299 298 296 295 296 295 293 293 292 290 287 285 283
278 279 280 283 284 286 288 291 290 290 291 293 294 296 298 300 301 302 303 305 306 307 307 306 306 306 304 304 303 302 301 300 298 297 296 295 293 291 291 290 286 282 278
276 278 281 282 285 287 288 287 287 289 290 293 296 297 299 302 303 305 306 306 307 306 306 307 308 307 306 306 305 302 300 298 297 296 295 294 290 287 285 284 280 277 275
277 278 281 283 284 284 284 286 287 289 292 295 298 298 301 304 306 306 306 306 306 307 307 308 308 309 308 304 304 302 301 299 295 294 294 294 291 287 285 283 281 279 276
276 278 280 280 281 283 285 286 288 290 294 295 295 299 301 302 302 304 306 307 307 305 307 308 308 303 305 304 302 301 305 304 300 299 294 292 288 286 285 284 281 279 276
274 275 276 278 280 283 285 287 289 290 293 295 296 297 298 299 302 303 303 304 306 306 305 306 307 306 306 306 306 306 306 303 299 296 294 293 291 287 286 283 280 277 275
271 273 277 280 282 284 286 287 289 291 292 293 294 297 299 300 300 301 302 302 304 307 307 307 306 306 307 307 307 307 304 299 297 296 295 293 291 288 286 283 281 280 277
271 275 278 280 282 284 286 288 290 292 293 295 297 298 299 300 301 302 304 304 305 305 306 306 306 307 309 308 307 304 300 298 298 297 295 291 289 287 284 283 282 279 276
273 275 278 281 283 284 286 288 291 294 297 297 298 298 298 300 302 302 303 304 304 305 305 305 305 306 308 307 304 302 302 302 301 298 295 292 289 287 285 284 282 278 274
275 278 280 282 286 288 289 290 291 293 295 297 298 300 300 300 301 302 302 303 304 305 306 307 307 308 307 303 304 304 303 301 300 298 296 293 289 286 284 283 281 278 273
277 279 283 285 286 287 289 290 292 293 295 297 298 299 300 300 302 302 303 303 304 306 307 308 310 306 305 303 303 304 303 302 301 298 295 291 287 283 281 280 278 275 271
278 280 283 285 286 289 290 290 292 293 294 297 299 299 300 300 302 303 304 305 306 307 308 310 307 306 306 305 305 304 304 302 300 298 295 292 287 285 283 281 276 270 268
281 283 284 286 287 288 289 291 293 294 296 297 298 298 300 302 303 303 305 305 307 308 308 307 308 307 305 305 304 305 304 303 302 300 297 294 291 288 284 282 276 270 267
280 282 283 286 288 290 291 292 294 295 296 297 299 301 301 303 304 306 307 308 308 308 309 308 308 306 306 305 305 305 306 306 303 300 297 294 291 290 287 283 277 269 265
282 284 286 288 289 291 292 293 295 297 297 298 300 301 303 305 306 307 307 309 308 308 308 309 307 306 306 305 306 307 307 306 303 301 298 294 294 294 289 283 276 268 265
282 283 285 287 289 290 292 293 294 295 297 299 301 303 304 305 307 307 306 307 307 308 309 309 308 307 306 307 308 309 309 308 306 304 302 299 297 294 290 285 277 273 267
282 284 286 287 289 290 291 293 295 296 298 302 303 304 305 306 307 305 307 308 308 309 309 309 308 307 308 308 308 309 310 312 311 309 305 302 301 295 291 286 279 273 269
283 286 287 288 290 292 293 295 297 299 300 302 304 305 305 304 305 306 307 307 309 309 309 309 307 308 307 308 310 312 313 312 311 309 307 307 304 299 296 289 282 274 266